Вернуться в каталог

STARLINK-30455

АктивенСвязьVLEO
NORAD 57942·PAYLOAD·🇺🇸 United States

Запущен Sep 25, 2023 с Vandenberg Space Force Base

Loading…

Ближайшие Пролёты (ближайшие 24 часа)

TLE

СвежийSource: CelesTrak SupGP

Эпоха: Sep 15, 2026, 02:30 UTC

1 57942C 23148H   26258.10465278 -.00039682  00000+0 -12040-2 0  2587
2 57942  53.1573 222.9964 0001327  88.1072 199.5215 15.33572501    11

Отслеживайте STARLINK-30455 в реальном времени с AllMySat

Download on the App Store